GW2918 Weather Reports


Display with metric or nautical units.
time (UTC)temp
F
wind
direction
speed
MPH
gust
MPH
rain 1hr
in
rain 24hr
in
rain mn
in
humidity
%
barometer
mb
20260831215031 69 193 0.0 7.0 0.00 0.08 0.08 97 1020.5
20260831214030 68 179 2.0 4.0 0.00 0.08 0.08 98 1020.5
20260831213027 68 172 2.0 5.0 0.00 0.08 0.08 98 1020.4
20260831212024 68 272 2.0 8.0 0.00 0.08 0.08 98 1020.7
20260831211024 68 157 2.0 4.0 0.00 0.08 0.08 98 1020.8
20260831210021 68 216 4.0 5.0 0.00 0.08 0.08 98 1020.6
20260831205018 68 216 4.0 6.0 0.00 0.08 0.08 97 1020.8
20260831204016 68 199 4.0 10.0 0.00 0.08 0.08 97 1020.7
20260831203015 68 201 4.0 13.0 0.00 0.08 0.08 97 1020.5
20260831202015 67 156 2.0 6.0 0.00 0.08 0.08 99 1020.5
20260831201015 66 156 1.0 9.0 0.00 0.08 0.08 99 1020.8
20260831200012 66 179 2.0 9.0 0.00 0.08 0.08 99 1020.6
20260831195007 67 190 2.0 6.0 0.00 0.08 0.08 99 1020.8
20260831194002 67 192 3.0 8.0 0.00 0.08 0.08 99 1020.7
20260831192958 67 195 0.0 7.0 0.00 0.08 0.08 99 1021.0
20260831191954 67 197 2.0 12.0 0.00 0.08 0.08 98 1021.1
20260831190952 68 197 4.0 6.0 0.00 0.08 0.08 99 1021.1
20260831185951 67 201 5.0 6.0 0.00 0.08 0.08 99 1021.2
20260831184948 66 204 2.0 2.0 0.00 0.08 0.08 99 1021.1
20260831183944 66 200 6.0 6.0 0.00 0.08 0.08 99 1021.5
20260831182943 66 205 3.0 6.0 0.00 0.08 0.08 99 1021.6
20260831181939 65 207 2.0 6.0 0.00 0.08 0.08 99 1021.6
20260831180935 66 202 3.0 4.0 0.00 0.08 0.08 99 1021.5
20260831175934 65 141 2.0 2.0 0.05 0.08 0.08 99 1022.3
20260831174932 65 185 2.0 5.0 0.12 0.07 0.07 99 1022.0
20260831173927 65 188 4.0 5.0 0.05 0.06 0.06 99 1022.3
20260831172927 65 152 1.0 2.0 0.02 0.04 0.04 99 1022.4
20260831171923 65 175 1.0 7.0 0.02 0.04 0.04 99 1022.4
20260831170922 65 219 4.0 5.0 0.02 0.04 0.04 99 1022.6
20260831165920 65 185 2.0 6.0 0.00 0.03 0.03 99 1022.5
20260831164918 65 233 4.0 7.0 0.05 0.03 0.03 99 1022.6
20260831163915 65 199 2.0 4.0 0.00 0.02 0.02 99 1022.8
20260831162914 65 192 2.0 4.0 0.00 0.02 0.02 99 1022.3
20260831161914 66 199 2.0 4.0 0.00 0.02 0.02 99 1022.4
20260831160912 66 177 2.0 4.0 0.00 0.02 0.02 99 1022.7
20260831155908 66 214 2.0 6.0 0.00 0.02 0.02 99 1022.7
20260831154903 66 197 2.0 5.0 0.00 0.02 0.02 99 1022.5
20260831153903 66 184 0.0 2.0 0.00 0.02 0.02 99 1022.5
20260831152901 65 201 2.0 4.0 0.00 0.02 0.02 99 1022.6
20260831151857 65 187 2.0 8.0 0.00 0.02 0.02 99 1022.7
20260831150857 66 146 0.0 3.0 0.00 0.02 0.02 99 1022.8
20260831145852 66 208 0.0 4.0 0.00 0.02 0.02 99 1022.6
20260831144850 65 185 2.0 5.0 0.00 0.02 0.02 99 1022.6
20260831143846 65 148 0.0 4.0 0.00 0.02 0.02 99 1022.5
20260831142842 64 186 2.0 6.0 0.00 0.02 0.02 99 1022.6
20260831141837 64 183 0.0 2.0 0.00 0.02 0.02 99 1022.4
20260831140833 64 141 2.0 2.0 0.00 0.02 0.02 99 1022.5
20260831135832 64 159 0.0 5.0 0.00 0.02 0.02 99 1022.7
20260831134828 64 190 2.0 4.0 0.00 0.02 0.02 99 1022.5
20260831133824 64 175 1.0 1.0 0.00 0.02 0.02 99 1022.5
20260831132819 64 168 0.0 2.0 0.00 0.02 0.02 99 1022.5
20260831131814 64 209 0.0 2.0 0.00 0.02 0.02 99 1022.7
20260831130811 64 0 0.0 2.0 0.00 0.02 0.02 99 1022.4
20260831125806 64 170 0.0 2.0 0.00 0.02 0.02 99 1022.4
20260831124801 64 135 0.0 1.0 0.00 0.02 0.02 99 1022.6
20260831123757 64 145 0.0 2.0 0.00 0.02 0.02 99 1022.7
20260831122757 63 142 0.0 1.0 0.00 0.02 0.02 99 1022.8
20260831121752 63 129 0.0 2.0 0.00 0.02 0.02 99 1022.5
20260831120750 63 82 2.0 3.0 0.00 0.02 0.02 99 1022.4
20260831115745 63 99 3.0 3.0 0.00 0.02 0.02 99 1022.6
20260831114741 63 126 2.0 3.0 0.00 0.02 0.02 99 1022.7
20260831113736 63 142 0.0 0.0 0.00 0.02 0.02 99 1022.8
20260831112735 63 142 0.0 2.0 0.00 0.02 0.02 99 1022.7
20260831111732 62 132 1.0 1.0 0.00 0.02 0.02 99 1022.4
20260831110730 62 55 0.0 2.0 0.00 0.02 0.02 99 1022.0
20260831105729 62 123 2.0 2.0 0.00 0.02 0.02 99 1022.3
20260831104726 62 73 1.0 2.0 0.00 0.02 0.02 99 1022.1
20260831103722 62 163 1.0 2.0 0.00 0.02 0.02 99 1022.3
20260831102717 62 133 0.0 2.0 0.00 0.02 0.02 99 1022.0
20260831101714 62 186 1.0 2.0 0.00 0.02 0.02 99 1021.9
20260831100711 62 133 0.0 1.0 0.00 0.02 0.02 99 1022.0
20260831095711 62 23 0.0 2.0 0.00 0.02 0.02 99 1022.0
20260831094707 62 70 1.0 3.0 0.00 0.02 0.02 99 1021.8
20260831093705 62 68 2.0 3.0 0.00 0.02 0.02 99 1021.9
20260831092702 62 79 1.0 2.0 0.00 0.02 0.02 99 1021.9
20260831091657 62 60 1.0 2.0 0.00 0.02 0.02 99 1022.0
20260831090653 62 87 0.0 2.0 0.00 0.02 0.02 99 1022.0
20260831085650 62 328 1.0 2.0 0.00 0.02 0.02 99 1022.1
20260831084647 62 150 1.0 2.0 0.00 0.02 0.02 99 1022.3
20260831083645 62 135 0.0 1.0 0.00 0.02 0.02 99 1022.1
20260831082644 62 104 2.0 2.0 0.00 0.02 0.02 99 1021.9
20260831081641 62 79 2.0 2.0 0.00 0.02 0.02 99 1021.9
20260831080638 62 64 4.0 5.0 0.00 0.02 0.02 99 1021.8
20260831075635 62 53 2.0 3.0 0.00 0.02 0.02 99 1021.9
20260831074634 62 56 0.0 2.0 0.00 0.02 0.02 99 1021.7
20260831073630 62 77 1.0 2.0 0.00 0.02 0.02 99 1021.6
20260831072625 62 95 1.0 2.0 0.00 0.02 0.02 99 1021.5
20260831071620 62 71 4.0 4.0 0.02 0.02 0.02 99 1021.5
20260831070620 62 72 2.0 4.0 0.00 0.02 0.02 99 1021.9
20260831065619 62 69 5.0 6.0 0.00 0.02 0.02 99 1021.9
20260831064619 62 13 2.0 4.0 0.00 0.02 0.02 99 1022.0
20260831063617 63 39 2.0 4.0 0.00 0.02 0.02 99 1021.8
20260831062612 63 37 1.0 3.0 0.00 0.02 0.02 99 1022.0
20260831061610 63 72 3.0 3.0 0.00 0.02 0.02 99 1022.1
20260831060608 63 106 1.0 2.0 0.00 0.02 0.02 99 1022.4
20260831055608 64 82 1.0 2.0 0.00 0.02 0.02 99 1022.3
20260831054603 64 72 2.0 3.0 0.00 0.02 0.02 99 1022.5
20260831053601 64 19 0.0 2.0 0.00 0.02 0.02 99 1022.5
20260831052601 64 80 2.0 2.0 0.00 0.02 0.02 99 1022.0
20260831051559 64 147 0.0 1.0 0.00 0.02 0.02 99 1022.1
20260831050558 64 166 1.0 2.0 0.00 0.02 0.02 99 1022.1
20260831045556 64 174 0.0 2.0 0.00 0.02 0.02 99 1022.3
20260831044553 64 170 1.0 2.0 0.00 0.02 0.02 99 1022.4
20260831043549 64 336 0.0 2.0 0.00 0.02 0.02 99 1022.6
20260831042543 64 172 0.0 2.0 0.05 0.02 0.02 99 1022.4
20260831041539 64 129 0.0 0.0 0.05 0.01 0.01 99 1022.5
20260831040539 64 57 0.0 1.0 0.02 0.00 0.00 99 1022.5
20260831035537 64 78 1.0 2.0 0.00 0.00 0.00 99 1022.4
20260831034532 64 92 2.0 3.0 0.00 0.00 0.00 99 1022.7
20260831033529 64 254 2.0 2.0 0.02 0.00 0.00 99 1022.6
20260831032529 64 199 1.0 2.0 0.00 0.00 0.00 99 1022.8
20260831031525 64 204 0.0 1.0 0.00 0.00 0.00 99 1022.7
20260831030523 64 217 0.0 1.0 0.00 0.00 0.00 99 1022.5
20260831025521 64 112 1.0 1.0 0.00 0.00 0.00 99 1022.5
20260831024518 64 173 0.0 1.0 0.00 0.00 0.00 99 1022.4
20260831023515 64 126 0.0 2.0 0.00 0.00 0.00 99 1022.6
20260831022515 64 157 0.0 1.0 0.00 0.00 0.00 99 1022.4
20260831021515 64 161 0.0 2.0 0.00 0.00 0.00 99 1022.6
20260831020512 64 38 0.0 1.0 0.00 0.00 0.00 99 1022.8
20260831015508 64 202 0.0 2.0 0.00 0.00 0.00 99 1022.8
20260831014504 64 202 0.0 3.0 0.00 0.00 0.00 99 1022.6
20260831013501 64 168 0.0 1.0 0.00 0.00 0.00 99 1022.6
20260831012456 64 76 0.0 2.0 0.00 0.00 0.00 99 1022.6
20260831011456 65 173 0.0 2.0 0.00 0.00 0.00 99 1022.5
20260831010452 65 110 0.0 1.0 0.00 0.00 0.00 99 1022.6
20260831005450 65 158 1.0 1.0 0.00 0.00 0.00 99 1022.1
20260831004446 65 142 0.0 2.0 0.00 0.00 0.00 99 1022.3
20260831003443 65 55 0.0 2.0 0.00 0.00 0.00 99 1021.9
20260831002441 65 14 0.0 1.0 0.00 0.00 0.00 99 1021.4
20260831001438 65 188 0.0 2.0 0.00 0.00 0.00 99 1021.7
20260831000436 65 135 0.0 1.0 0.00 0.00 0.00 99 1021.3
20260830235436 66 350 0.0 2.0 0.00 0.00 0.00 99 1021.6
20260830234432 66 150 0.0 2.0 0.00 0.00 0.00 98 1021.2
20260830233429 66 178 0.0 2.0 0.00 0.00 0.00 98 1021.4
20260830232426 66 126 0.0 1.0 0.00 0.00 0.00 98 1021.4
20260830231423 66 152 0.0 1.0 0.00 0.00 0.00 97 1021.6
20260830230418 66 174 1.0 2.0 0.00 0.00 0.00 97 1021.4
20260830225413 67 337 1.0 2.0 0.00 0.00 0.00 96 1021.8
20260830224412 67 133 0.0 1.0 0.00 0.00 0.00 96 1021.7
20260830223411 67 156 0.0 2.0 0.00 0.00 0.00 96 1021.6
20260830222406 67 150 2.0 2.0 0.00 0.00 0.00 96 1021.3
20260830221403 66 64 1.0 3.0 0.00 0.00 0.00 95 1021.5
20260830220358 67 83 4.0 4.0 0.00 0.00 0.00 95 1021.6
20260830215356 67 335 1.0 3.0 0.00 0.00 0.00 95 1021.5